FENGYUN 1C DEB

Satellite information

Favourite Embed

Satellite Type and Status

DEBRISIN ORBIT

Key statistics

Satellite FENGYUN 1C DEB at a glance.

Uptime

9655

Days in orbit

Revolutions

≈ 14.4

Per day

Orbit

SSO

Sun Synchronous Orbit

Inclination

98.8

Latest

Satellite identification and parameters

Extended collection of information and parameters for FENGYUN 1C DEB.

Object identification

Identified? True

Debris? True

Object name: FENGYUN 1C DEB

International designator: 1999-025CT

Object number (NORAD): 29801

Object ID (CCSDS): 29801

Country: PEOPLES REPUBLIC OF CHINA (PRC)

Current information (Y/N): Y

RCS size: MEDIUM

Orbital parameters

Period: 100.294 minutes

Inclination: 98.7942 deg

SMA: 7150.598 km

Apoapsis: 847.675 km

Periapsis: 697.25 km

RAAN: 187.3552 deg

Eccentricy: 0.01051834

Argument of periapsis: 81.9359 deg

Mean anomaly: 95.7137 deg

Mean motion: 14.35784389 rev/day

Mean motion (dot): 0.00000597 rev/day2

B* drag term: 0.00020895692 1/REarth

Two-line elements (TLE)

Creation date: Oct. 15, 2025, 2:21 a.m.

Reference frame: TEME

Reference center: EARTH

Epoch: Oct. 14, 2025, 12:31 p.m. UTC

TLE line 0: 0 FENGYUN 1C DEB

TLE line 1: 1 29801U 99025CT 25287.52153434 .00000597 00000-0 20896-3 0 9995

TLE line 2: 2 29801 98.7942 187.3552 0105183 81.9359 95.7137 14.35784389980916

Live tracking on map

Real-time ground track for satellite FENGYUN 1C DEB.

In-orbit conjunctions

A list of the most updated potential collisions computed for object FENGYUN 1C DEB.

Target Orbit TCA Probability of collision Miss distance Type
FENGYUN 1C DEB SSO 2025-08-22 18:35:34 0.0001145753 144.0 (m) DEBRIS
CZ-6A DEB LEO 2025-02-21 19:34:16 0.001996063 173.0 (m) DEBRIS
CZ-6A DEB SSO 2024-12-27 19:08:53 0.0001789827 378.0 (m) DEBRIS
CZ-6A DEB LEO 2024-10-07 10:21:02 0.001104416 482.0 (m) DEBRIS

Associated space launch

Chinese polar orbiting meteorological satellite

FENGYUN 1C DEB was lifted into orbit during the mission ‘Long March 4B | Feng Yun 1C’, on board a Long March 4B space rocket.

The launch took place on May 10, 1999, 1:33 a.m. from Launch Complex 7.

For more information about the launch, click the button.

Launch to space Long March 4B | Feng Yun 1C
Long March 4B | Feng Yun 1C

Agency: N/A

Status: Launch Successful

Launch date: May 10, 1999, 1:33 a.m. UTC

Rocket: Long March 4B

Launch pad: Launch Complex 7

Location: Taiyuan Satellite Launch Center, People's Republic of China

...

Latest news about this satellite

There are no fresh news available about this satellite. Check back as we update our databases every day.


Newsletter sign-up

Weekly statistics, charts and insights to help you stay on top of the space industry.